Powrót do katalogu

COSMOS 2251 DEB

AktywnyLEO
NORAD 34481·DEBRIS·🇷🇺 Russia

Wystrzelony Jun 16, 1993 z Plesetsk Cosmodrome

Loading…

Następne Przeloty (najbliższe 24 godziny)

TLE

ŚwieżeSource: Space-Track

Epoka: Sep 14, 2026, 10:34 UTC

1 34481U 93036UA  26257.44091733  .00000706  00000-0  25936-3 0  9995
2 34481  73.9762 267.9979 0068591  16.4109  53.4274 14.33265186913989

Śledź COSMOS 2251 DEB w czasie rzeczywistym z AllMySat

Download on the App Store